KMRYKHAF

Guest
Details From KMRY - Monterey Peninsula
To KHAF - HALF MOON BAY
Flight Number -
Tags decoded
Created
Modified
Stats Distance 72 nm / 134 km
Max Altitude 0 ft / 0 m
Waypoints 4
Social Downloads 0
Likes 0
Share VATSIM

Download

Looking for another format? Having issues loading an existing format? Contact us
Advertisement - Login to hide

Notes

Requested: KMRY OSI HOMKA KHAF

Route

KMRY OSI HOMKA KHAF

ID Type Via Altitude Latitude Longitude Leg Dist Tot Dist Heading (true) Name
O KMRY APT - 0 ft / 0 m 36.58692˚ -121.84193˚ - 0 nm - Monterey Peninsula
OSI VOR - 0 ft / 0 m 37.39250˚ -122.28131˚ 52 nm 52 nm 337° / 336° WOODSIDE VORTAC
HOMKA FIX - 0 ft / 0 m 37.33567˚ -122.44389˚ 8 nm 61 nm 246° / 246° -
O KHAF APT - 0 ft / 0 m 37.51343˚ -122.50116˚ 11 nm 72 nm 346° / 346° HALF MOON BAY

Altitude Profile

Advertisement - Login to hide

KMRY

Details ICAO KMRY (MRY)
Name Monterey Peninsula
Region United States
Timezone America/Los_Angeles (UTC-8.0)
Stats Elevation 257 ft / 78 m (AMSL)
Location 36.586916° -121.841927°
Runways 2
Magnetic Variation 13.159° E

METAR

KMRY 140954Z AUTO 08004KT 10SM CLR 06/00 A3003 RMK AO2 SLP184 T00610000 TSNO

Decode

TAF

TAF KMRY 140526Z 1406/1506 11004KT P6SM FEW200 FM141500 VRB03KT P6SM FEW200 FM142000 27008KT P6SM SKC FM150400 24005KT P6SM SCT008

Decode

Departure Runways

ID Width Length Bearing (true) Bearing (mag) Surface Threshold Offset Overrun Length
10L 59 ft / 18 m 3,508 ft / 1,069 m 112.85° 99.69° Asphalt 0 ft / 0 m 230 ft / 70 m
10R 151 ft / 46 m 7,605 ft / 2,318 m 112.84° 99.68° Asphalt 0 ft / 0 m 174 ft / 53 m
28L 151 ft / 46 m 7,605 ft / 2,318 m 292.85° 279.69° Asphalt 1,001 ft / 305 m 190 ft / 58 m
28R 59 ft / 18 m 3,508 ft / 1,069 m 292.85° 279.69° Asphalt 0 ft / 0 m 0 ft / 0 m

KHAF

Details ICAO KHAF
Name HALF MOON BAY
Region United States
Timezone America/Los_Angeles (UTC-8.0)
Stats Elevation 66 ft / 20 m (AMSL)
Location 37.513435° -122.501163°
Runways 1
Magnetic Variation 13.460° E

METAR

KHAF 141035Z AUTO 30003KT 9SM BKN002 07/03 A3001 RMK AO2

Decode

TAF

Not found

Destination Runways

ID Width Length Bearing (true) Bearing (mag) Surface Threshold Offset Overrun Length
12 151 ft / 46 m 5,005 ft / 1,525 m 137.06° 123.60° Asphalt 764 ft / 233 m 0 ft / 0 m
30 151 ft / 46 m 5,005 ft / 1,525 m 317.06° 303.60° Asphalt 764 ft / 233 m 0 ft / 0 m

Popular Alternatives